• In Hungary
  • List of Countries
  • For 7 days
  • Water Temperature
  • Satellite Maps
  • Weather Map
  • News
  • Weather Widgets
  • user-avatar
    Login

    Hourly Weather Rakutowo

    Today, 18 February, Sunday

    Time Temperature Precipitation Wind Pressure Humidity
    00:00 -1°C° 0 mm 2 mps 760 mmHg 91%
    01:00 -2°C° 0 mm 2 mps 760 mmHg 92%
    02:00 -2°C° 0 mm 2 mps 760 mmHg 92%
    03:00 -2°C° 0 mm 2 mps 761 mmHg 92%
    04:00 -2°C° 0 mm 2 mps 761 mmHg 93%
    05:00 -3°C° 0 mm 2 mps 761 mmHg 93%
    06:00 -3°C° 0 mm 2 mps 762 mmHg 92%
    07:00 -3°C° 0 mm 2 mps 762 mmHg 92%
    08:00 -2°C° 0 mm 2 mps 762 mmHg 87%
    09:00 -1°C° 0 mm 2 mps 763 mmHg 81%
    10:00 -1°C° 0 mm 3 mps 763 mmHg 76%
    11:00 +1°C° 0 mm 2 mps 763 mmHg 72%
    12:00 +1°C° 0 mm 2 mps 763 mmHg 69%
    13:00 +2°C° 0 mm 2 mps 763 mmHg 65%
    14:00 +1°C° 0 mm 2 mps 763 mmHg 66%
    15:00 +1°C° 0 mm 2 mps 763 mmHg 67%
    16:00 +1°C° 0 mm 2 mps 763 mmHg 68%
    17:00 +2°C° 0 mm 1 mps 763 mmHg 70%
    18:00 +1°C° 0 mm 1 mps 763 mmHg 72%
    19:00 +1°C° 0 mm 1 mps 764 mmHg 74%
    20:00 +1°C° 0 mm 1 mps 764 mmHg 74%
    21:00 +1°C° 0 mm 1 mps 763 mmHg 74%
    22:00 +1°C° 0 mm 1 mps 763 mmHg 74%
    23:00 0°C° 0 mm 1 mps 763 mmHg 74%

    Tomorrow, 19 February, Monday

    Time Temperature Precipitation Wind Pressure Humidity
    00:00 0°C° 0 mm 1 mps 763 mmHg 75%
    01:00 -2°C° 0 mm 2 mps 763 mmHg 75%
    02:00 -2°C° 0 mm 2 mps 763 mmHg 76%
    03:00 -2°C° 0 mm 2 mps 763 mmHg 77%
    04:00 -2°C° 0 mm 2 mps 762 mmHg 77%
    05:00 -2°C° 0 mm 2 mps 762 mmHg 78%
    06:00 0°C° 0 mm 1 mps 762 mmHg 78%
    07:00 -1°C° 0 mm 1 mps 762 mmHg 78%
    08:00 0°C° 0 mm 1 mps 762 mmHg 74%
    09:00 -1°C° 0 mm 2 mps 762 mmHg 70%
    10:00 +1°C° 0 mm 2 mps 762 mmHg 65%
    11:00 +1°C° 0 mm 2 mps 762 mmHg 63%
    12:00 +2°C° 0 mm 2 mps 761 mmHg 60%
    13:00 +2°C° 0 mm 2 mps 761 mmHg 58%
    14:00 +2°C° 0 mm 2 mps 761 mmHg 60%
    15:00 +3°C° 0 mm 1 mps 760 mmHg 63%
    16:00 +2°C° 0 mm 1 mps 760 mmHg 65%
    17:00 +2°C° 0 mm 1 mps 760 mmHg 68%
    18:00 -1°C° 0 mm 2 mps 760 mmHg 70%
    19:00 -2°C° 0 mm 2 mps 760 mmHg 73%
    20:00 -2°C° 0 mm 2 mps 760 mmHg 74%
    21:00 -2°C° 0 mm 2 mps 760 mmHg 75%
    22:00 -2°C° 0 mm 2 mps 760 mmHg 76%
    23:00 -2°C° 0 mm 2 mps 760 mmHg 76%

    Day after tomorrow, 20 February, Tuesday

    Time Temperature Precipitation Wind Pressure Humidity
    00:00 -2°C° 0 mm 2 mps 759 mmHg 76%
    01:00 -2°C° 0 mm 2 mps 759 mmHg 77%
    02:00 -2°C° 0 mm 2 mps 759 mmHg 77%
    03:00 -2°C° 0 mm 2 mps 759 mmHg 77%
    04:00 -3°C° 0 mm 2 mps 759 mmHg 78%
    05:00 -3°C° 0 mm 2 mps 759 mmHg 78%
    06:00 -3°C° 0 mm 2 mps 759 mmHg 78%
    07:00 -4°C° 0 mm 3 mps 759 mmHg 78%
    08:00 -2°C° 0 mm 3 mps 759 mmHg 73%
    09:00 -1°C° 0 mm 3 mps 759 mmHg 68%
    10:00 -2°C° 0 mm 4 mps 759 mmHg 63%
    11:00 -1°C° 0 mm 4 mps 759 mmHg 61%
    12:00 0°C° 0 mm 4 mps 759 mmHg 59%
    13:00 0°C° 0 mm 4 mps 758 mmHg 56%
    14:00 +1°C° 0 mm 3 mps 758 mmHg 58%
    15:00 0°C° 0 mm 3 mps 758 mmHg 61%
    16:00 0°C° 0 mm 3 mps 758 mmHg 63%
    17:00 -1°C° 0 mm 3 mps 758 mmHg 67%
    18:00 -2°C° 0 mm 3 mps 758 mmHg 71%
    19:00 -2°C° 0 mm 3 mps 758 mmHg 75%
    20:00 -4°C° 0 mm 3 mps 758 mmHg 76%
    21:00 -4°C° 0 mm 3 mps 759 mmHg 77%
    22:00 -3°C° 0 mm 2 mps 759 mmHg 78%
    23:00 -3°C° 0 mm 2 mps 759 mmHg 79%

    21 February, Wednesday

    Time Temperature Precipitation Wind Pressure Humidity
    00:00 -3°C° 0 mm 2 mps 759 mmHg 79%
    01:00 -3°C° 0 mm 2 mps 759 mmHg 79%
    02:00 -3°C° 0 mm 2 mps 759 mmHg 79%
    03:00 -3°C° 0 mm 2 mps 758 mmHg 79%
    04:00 -3°C° 0 mm 2 mps 758 mmHg 80%
    05:00 -4°C° 0 mm 3 mps 758 mmHg 80%
    06:00 -5°C° 0 mm 3 mps 759 mmHg 81%
    07:00 -5°C° 0 mm 3 mps 759 mmHg 82%
    08:00 -4°C° 0 mm 3 mps 759 mmHg 78%
    09:00 -2°C° 0 mm 3 mps 759 mmHg 73%
    10:00 -1°C° 0 mm 3 mps 759 mmHg 69%
    11:00 -1°C° 0 mm 3 mps 759 mmHg 67%
    12:00 -1°C° 0 mm 3 mps 759 mmHg 65%
    13:00 0°C° 0 mm 3 mps 758 mmHg 63%
    14:00 0°C° 0 mm 3 mps 758 mmHg 64%
    15:00 -1°C° 0 mm 3 mps 758 mmHg 65%
    16:00 -2°C° 0 mm 4 mps 758 mmHg 66%
    17:00 -1°C° 0 mm 3 mps 758 mmHg 68%
    18:00 -2°C° 0 mm 3 mps 759 mmHg 70%
    19:00 -2°C° 0 mm 3 mps 759 mmHg 71%
    20:00 -2°C° 0 mm 3 mps 759 mmHg 72%
    21:00 -4°C° 0 mm 3 mps 759 mmHg 74%
    22:00 -4°C° 0 mm 3 mps 760 mmHg 75%
    23:00 -4°C° 0 mm 3 mps 760 mmHg 76%

    22 February, Thursday

    Time Temperature Precipitation Wind Pressure Humidity
    00:00 -4°C° 0 mm 3 mps 760 mmHg 77%
    01:00 -4°C° 0 mm 3 mps 760 mmHg 78%
    02:00 -4°C° 0 mm 3 mps 759 mmHg 79%
    03:00 -4°C° 0 mm 3 mps 759 mmHg 80%
    04:00 -4°C° 0 mm 4 mps 759 mmHg 81%
    05:00 -5°C° 0 mm 4 mps 759 mmHg 82%
    06:00 -5°C° 0 mm 4 mps 759 mmHg 82%
    07:00 -5°C° 0 mm 4 mps 759 mmHg 82%
    08:00 -4°C° 0 mm 4 mps 759 mmHg 77%
    09:00 -4°C° 0 mm 4 mps 759 mmHg 73%
    10:00 -3°C° 0 mm 4 mps 759 mmHg 69%
    11:00 -3°C° 0 mm 4 mps 758 mmHg 66%
    12:00 -2°C° 0 mm 4 mps 758 mmHg 63%
    13:00 -2°C° 0 mm 4 mps 758 mmHg 60%
    14:00 -2°C° 0 mm 4 mps 757 mmHg 61%
    15:00 -2°C° 0 mm 4 mps 757 mmHg 61%
    16:00 -2°C° 0 mm 4 mps 757 mmHg 62%
    17:00 -3°C° 0 mm 4 mps 757 mmHg 64%
    18:00 -3°C° 0 mm 4 mps 757 mmHg 66%
    19:00 -4°C° 0 mm 4 mps 757 mmHg 68%
    20:00 -4°C° 0 mm 4 mps 756 mmHg 68%
    21:00 -4°C° 0 mm 4 mps 756 mmHg 69%
    22:00 -4°C° 0 mm 3 mps 756 mmHg 69%
    23:00 -5°C° 0 mm 3 mps 756 mmHg 69%

    23 February, Friday

    Time Temperature Precipitation Wind Pressure Humidity
    00:00 -5°C° 0 mm 3 mps 755 mmHg 70%
    01:00 -5°C° 0 mm 3 mps 755 mmHg 70%
    02:00 -5°C° 0 mm 3 mps 755 mmHg 69%
    03:00 -5°C° 0 mm 4 mps 754 mmHg 69%
    04:00 -7°C° 0 mm 4 mps 754 mmHg 69%
    05:00 -7°C° 0 mm 4 mps 754 mmHg 68%
    06:00 -7°C° 0 mm 4 mps 753 mmHg 67%
    07:00 -7°C° 0 mm 4 mps 753 mmHg 66%
    08:00 -7°C° 0 mm 4 mps 753 mmHg 64%
    09:00 -5°C° 0 mm 4 mps 753 mmHg 63%
    10:00 -6°C° 0 mm 5 mps 753 mmHg 61%
    11:00 -5°C° 0 mm 5 mps 752 mmHg 56%
    12:00 -5°C° 0 mm 5 mps 752 mmHg 51%
    13:00 -5°C° 0 mm 5 mps 751 mmHg 46%
    14:00 -4°C° 0 mm 4 mps 751 mmHg 47%
    15:00 -4°C° 0 mm 4 mps 751 mmHg 48%
    16:00 -4°C° 0 mm 4 mps 751 mmHg 48%
    17:00 -5°C° 0.1 mm 4 mps 751 mmHg 53%
    18:00 -5°C° 0.1 mm 4 mps 751 mmHg 57%
    19:00 -5°C° 0.1 mm 3 mps 751 mmHg 62%
    20:00 -7°C° 0.1 mm 4 mps 751 mmHg 64%
    21:00 -7°C° 0.1 mm 5 mps 751 mmHg 66%
    22:00 -8°C° 0.1 mm 6 mps 751 mmHg 69%
    23:00 -8°C° 0.1 mm 6 mps 751 mmHg 68%
    Show more